Theta_e
326 319 321 321 320 321 323 326 351 354 351 351 349 347 348 347 349 351 344 342 342 345 345 347 346 347 348 345 347 343 341 341 345 348 347 347 347 345 344 344 343 342 342 342
320 320 320 321 322 322 323 328 352 350 349 350 351 353 352 349 350 349 343 342 342 344 344 344 345 346 347 345 346 347 346 343 342 347 347 344 346 346 346 345 345 342 344 343
321 322 323 323 323 322 321 323 348 350 348 347 349 350 351 348 348 345 344 342 342 344 345 345 344 344 345 345 345 346 346 345 344 347 349 348 349 347 345 348 345 345 344 344
322 323 324 323 323 321 319 321 341 349 350 355 347 348 347 345 349 347 344 342 341 342 345 345 345 344 344 345 345 346 346 346 344 347 347 348 348 344 345 346 345 345 345 345
321 322 322 323 323 322 322 323 336 346 344 349 351 350 345 346 352 351 348 344 342 341 343 345 345 345 344 344 345 343 344 345 342 345 346 349 349 347 346 348 346 348 348 347
320 323 320 320 322 322 324 336 338 338 340 345 344 349 351 351 353 351 348 345 345 344 343 344 345 344 343 344 344 343 342 340 342 343 345 347 347 343 343 350 349 347 349 349
323 323 321 322 322 321 324 323 327 341 347 343 343 347 343 348 350 350 351 349 346 346 346 342 343 343 343 344 343 343 343 340 339 346 346 346 346 343 347 348 349 347 348 347
323 323 323 324 322 322 325 324 326 336 337 337 341 349 348 343 343 347 347 349 349 349 348 346 341 343 341 341 341 341 342 342 338 345 347 345 345 345 346 349 346 345 344 342
323 324 325 324 325 322 324 325 323 327 327 336 344 345 341 345 344 343 342 345 345 350 348 346 343 342 345 346 345 342 343 341 336 340 347 349 347 344 347 348 348 347 348 349
323 325 324 326 324 324 323 325 330 324 332 339 345 346 346 346 354 351 345 346 347 346 346 347 347 345 345 345 347 346 346 343 340 335 339 345 340 341 346 344 347 346 347 351
320 321 323 323 324 324 326 327 325 324 324 334 346 346 349 351 350 350 349 347 347 345 345 346 347 347 346 345 346 347 348 346 344 340 339 338 338 338 338 342 348 349 346 348
322 318 321 323 323 323 326 327 324 327 329 338 338 350 345 343 343 344 345 345 344 344 344 340 337 344 347 342 337 345 346 346 344 344 342 341 339 340 340 340 345 347 349 346
319 319 324 323 319 319 321 322 319 319 326 331 336 345 343 342 341 341 343 343 343 344 343 344 343 337 345 342 337 335 340 344 346 345 345 342 342 342 342 342 343 347 348 346
321 316 321 324 321 322 321 320 322 318 323 335 340 345 345 342 341 340 339 338 339 339 339 339 340 342 342 341 341 339 340 341 341 339 346 346 345 346 345 344 343 344 345 345
318 320 319 319 321 321 320 321 321 323 327 329 342 344 345 342 337 334 332 331 331 334 336 337 336 336 340 345 344 342 341 340 339 342 341 342 343 340 346 346 346 347 346 346
315 319 320 320 321 320 320 321 328 332 338 339 340 341 337 334 332 330 329 327 327 327 325 329 331 335 333 333 339 344 345 345 346 345 340 340 340 338 338 345 346 347 348 349
319 319 321 323 320 319 319 320 324 336 336 339 341 338 334 332 330 329 328 327 326 325 326 325 325 327 329 332 330 331 336 345 347 346 346 346 343 339 338 339 344 346 349 350
314 318 317 321 318 321 319 318 325 335 335 335 335 334 332 330 327 326 324 323 322 322 323 323 323 323 325 328 329 328 330 331 335 339 340 341 344 344 343 339 340 340 341 346
312 313 317 319 320 319 322 319 322 331 332 333 331 326 324 323 323 322 323 322 320 320 320 321 321 322 323 325 326 326 326 328 329 330 330 332 333 335 340 344 345 345 347 345
312 311 315 317 322 322 320 319 321 323 332 330 326 323 322 322 322 319 319 319 318 318 318 318 319 319 319 320 322 324 325 325 325 326 326 325 325 328 329 328 328 329 334 340
315 315 317 317 319 321 318 318 322 323 321 328 327 323 323 320 320 318 317 317 317 317 317 317 317 317 317 317 317 317 319 320 322 322 324 324 323 322 321 319 318 319 323 330
320 317 319 317 319 322 321 320 320 318 318 324 325 323 323 320 318 317 317 316 317 316 316 315 316 316 316 316 316 315 315 314 314 315 317 320 321 322 323 323 322 320 320 327
318 317 319 319 319 319 318 318 317 319 319 319 321 319 319 317 317 317 316 316 315 315 314 315 315 315 314 313 311 311 310 310 310 310 311 313 314 316 318 320 321 322 322 322
315 317 317 318 318 319 318 317 317 316 317 317 318 319 319 317 316 315 315 314 314 313 313 312 310 311 310 310 310 309 309 308 309 310 311 313 314 315 316 318 320 321 324 323
315 316 314 315 317 319 318 317 316 316 316 315 314 315 315 315 315 315 314 314 313 313 312 311 309 307 308 307 307 307 307 307 307 307 308 310 311 313 315 318 319 321 323 322
316 315 313 313 316 316 318 317 316 316 314 314 314 313 313 313 314 313 313 312 312 312 311 309 308 306 306 306 306 306 305 305 304 304 305 306 307 308 309 309 311 318 320 321
Wind_Speed
6 4 5 8 5 7 3 5 4 6 8 6 7 14 20 26 22 22 25 30 26 36 40 37 31 28 27 22 21 19 23 15 23 19 15 13 13 11 14 11 11 13 15 17
5 5 8 7 7 6 5 3 5 8 8 8 6 14 19 25 30 28 27 30 32 33 41 38 34 30 28 24 22 21 18 13 22 16 16 10 12 10 9 12 12 13 16 15
6 7 9 6 7 8 8 6 9 6 9 4 6 2 4 3 16 23 27 30 37 38 40 40 37 32 30 26 25 22 19 13 20 16 13 12 12 10 10 11 11 13 11 13
6 8 5 7 8 8 7 9 13 18 8 5 6 4 5 7 9 17 25 27 34 39 41 40 40 36 32 29 25 22 21 17 18 21 16 10 13 9 9 7 8 11 9 11
8 6 7 7 13 8 10 6 10 17 5 8 2 3 2 9 9 15 15 25 28 38 37 42 41 36 32 29 25 21 23 20 19 26 18 10 12 12 9 9 11 13 10 12
9 15 7 9 9 10 7 4 8 7 4 2 10 6 4 9 17 21 18 27 31 30 32 39 39 36 32 29 26 22 22 22 22 27 20 15 13 13 16 12 13 13 14 13
5 7 10 9 7 4 5 6 1 2 1 6 13 4 6 11 16 24 20 25 29 27 24 30 35 38 34 32 28 24 22 23 27 27 22 18 16 16 14 14 16 15 14 16
3 6 5 3 8 6 3 8 5 5 5 2 10 6 6 12 15 13 16 22 23 20 13 20 28 37 36 32 30 26 23 22 27 30 24 19 17 16 12 14 16 12 11 14
3 5 5 3 5 9 3 2 6 2 1 4 4 1 7 9 4 11 14 14 21 23 25 18 21 28 34 33 34 29 23 20 26 30 26 22 20 18 14 13 14 14 12 11
5 3 2 5 1 3 6 3 3 4 1 3 3 4 2 4 6 6 8 13 19 20 19 19 22 31 31 27 23 27 27 23 24 28 28 26 22 20 19 14 15 15 12 12
4 2 7 3 1 6 4 3 5 4 4 4 4 2 3 9 10 8 11 11 18 19 21 18 18 23 23 26 14 12 20 27 26 27 30 28 25 22 18 18 18 18 16 15
1 4 1 6 5 4 5 5 5 5 3 3 4 2 6 13 15 14 14 21 16 11 10 7 9 13 21 16 18 14 5 19 25 23 28 27 26 25 22 20 21 19 18 17
5 4 3 7 7 8 5 4 5 5 2 4 5 3 7 19 15 13 22 24 24 21 17 12 12 11 11 19 11 17 23 15 19 18 23 25 26 27 25 24 23 23 21 19
2 4 4 3 5 3 5 9 1 6 3 3 3 16 11 14 18 21 13 21 21 23 23 21 20 16 10 9 15 19 22 27 25 15 21 24 22 24 25 27 25 27 24 23
4 3 4 4 7 2 5 10 7 3 5 5 14 17 13 15 15 20 34 22 23 26 27 23 24 22 17 16 12 11 12 17 21 15 15 24 21 18 20 27 26 24 25 26
6 3 6 7 6 7 5 15 6 7 9 12 17 12 18 28 29 26 26 29 26 26 28 26 24 20 22 21 14 13 10 10 11 22 20 19 11 15 22 21 24 22 20 22
4 3 3 3 7 5 6 6 6 3 3 17 11 20 30 21 26 26 27 29 29 29 27 23 22 22 20 18 19 19 16 15 11 9 9 11 17 16 13 14 23 18 19 22
3 3 3 3 5 3 5 6 5 10 6 18 21 19 21 27 25 32 33 33 28 26 25 22 20 18 17 18 15 15 14 14 13 13 11 11 9 11 13 10 15 19 20 18
6 4 2 3 2 4 7 8 3 7 5 17 21 22 31 35 38 25 26 26 26 22 21 19 17 14 13 12 13 11 10 10 11 12 10 9 8 7 7 6 7 13 15 16
6 6 4 2 2 3 2 3 13 12 2 5 29 29 34 32 12 10 28 27 25 21 17 18 15 13 10 9 7 8 8 6 6 6 6 7 5 4 4 3 1 2 5 6
4 3 3 0 2 1 4 7 12 4 7 16 26 31 27 7 15 32 31 26 22 21 16 12 11 8 7 5 4 6 5 6 5 5 5 5 4 3 1 1 1 2 2 2
2 1 0 0 2 2 12 4 5 2 3 20 27 28 23 35 41 33 28 25 20 15 12 8 8 7 5 5 8 8 7 6 8 10 10 10 9 7 6 5 3 1 3 3
1 5 4 4 4 5 15 17 16 21 24 27 34 34 41 38 32 26 21 15 12 12 10 7 5 4 2 3 4 5 5 5 5 7 9 12 12 11 10 9 8 6 4 5
4 1 3 4 5 5 13 17 16 20 26 25 24 26 26 28 24 23 20 15 10 6 3 3 5 5 3 2 3 3 4 4 3 2 3 6 9 10 10 10 10 9 8 7
4 2 3 1 3 4 4 9 17 16 15 19 18 19 25 26 27 26 22 16 11 7 5 4 5 6 4 2 2 1 3 4 4 3 2 3 4 7 10 10 11 10 8 11
5 1 3 4 2 5 12 14 13 16 15 16 17 15 16 19 25 22 18 13 10 7 5 5 4 3 3 3 2 1 3 5 7 8 7 6 4 5 8 10 13 16 17 16
Wind_Direction
201 102 202 233 194 231 296 354 62 91 101 131 113 148 187 193 204 221 191 189 173 166 166 167 168 167 168 164 164 170 184 179 179 182 183 176 167 169 174 163 165 177 175 182
23 193 217 229 251 264 267 136 104 75 97 57 150 144 181 204 211 210 181 187 170 166 170 169 171 171 171 170 175 183 184 177 186 189 174 155 165 162 153 153 151 158 174 181
167 232 206 205 258 271 259 168 182 152 109 28 263 73 139 271 200 200 189 189 178 170 173 175 179 181 180 180 186 188 196 194 191 182 184 198 192 176 164 172 164 152 159 188
223 252 208 217 244 207 257 212 169 146 133 171 222 217 228 171 249 191 194 186 179 176 180 181 184 183 186 188 192 196 198 197 197 192 195 199 204 206 193 184 175 163 160 173
239 219 200 203 227 202 239 203 183 166 125 118 259 118 263 146 197 206 202 186 177 185 178 184 187 188 190 191 195 204 205 202 201 196 195 200 201 198 209 194 188 182 175 189
245 254 176 214 238 223 232 87 66 57 58 86 194 161 209 181 177 206 201 189 178 176 179 186 191 191 192 196 199 202 207 207 200 200 201 207 219 219 215 212 198 195 193 185
298 249 248 221 250 349 106 76 89 102 250 229 159 179 245 185 180 195 179 181 189 174 176 179 195 193 194 197 202 208 210 208 200 203 209 205 218 220 216 220 203 211 204 203
215 313 187 215 175 178 140 141 154 184 172 181 151 202 268 194 178 178 177 178 178 183 163 196 192 198 199 203 208 211 214 211 202 204 210 211 215 211 218 201 204 208 207 202
13 271 324 192 194 129 254 94 194 96 91 96 182 19 29 62 77 142 139 161 180 167 184 179 183 188 191 197 207 212 221 211 206 206 209 213 216 213 205 205 203 194 193 194
233 246 275 289 147 35 135 168 67 20 250 128 347 64 310 84 78 58 138 163 144 140 145 155 160 168 170 179 198 213 224 222 213 214 213 212 218 217 209 200 202 208 207 219
41 97 297 27 140 169 37 61 58 112 118 161 142 6 293 103 93 87 85 142 153 128 130 138 142 162 175 181 175 188 227 226 225 220 218 221 221 226 221 214 214 222 227 238
29 134 278 234 277 225 141 138 113 117 272 92 104 81 93 101 89 90 81 93 129 112 154 160 158 164 193 205 230 237 202 218 222 229 232 223 228 225 228 229 222 228 230 234
321 11 26 352 359 0 35 31 127 114 91 192 122 171 131 106 94 82 91 87 98 102 106 131 120 145 174 180 165 235 242 238 214 218 232 234 233 228 233 232 228 231 229 233
59 59 109 151 218 216 353 354 67 112 111 157 91 141 162 143 135 118 88 98 106 100 100 100 93 98 133 176 212 230 236 230 235 262 246 232 230 239 235 234 234 235 238 239
90 85 26 346 359 41 42 359 334 132 177 132 164 143 154 142 132 129 120 109 97 102 99 99 98 98 110 129 170 190 204 208 222 223 222 224 260 252 239 235 229 232 236 241
356 358 45 7 0 38 48 16 28 107 113 79 120 104 137 131 126 122 118 116 106 108 103 106 101 107 94 94 105 125 173 186 211 179 209 203 227 209 252 252 224 228 234 238
42 67 52 335 340 3 28 343 12 44 62 135 126 143 139 137 133 132 129 126 122 110 106 103 97 93 93 94 90 93 101 124 141 171 206 229 217 220 216 235 224 243 246 244
95 49 73 156 5 58 246 287 95 71 60 103 118 135 133 129 125 128 127 123 120 114 111 106 103 105 109 102 104 98 105 115 123 122 112 112 148 208 233 234 229 245 260 256
74 102 50 109 135 291 33 334 304 118 34 129 126 120 119 120 118 115 130 130 123 122 117 113 119 121 122 128 129 137 132 128 131 124 121 118 115 121 148 177 207 246 260 252
55 72 111 82 104 179 138 353 15 75 72 162 131 136 135 129 121 148 138 136 130 132 132 127 132 132 148 149 177 182 161 158 144 132 132 137 146 147 140 132 147 290 286 286
353 9 112 77 205 346 337 357 130 154 224 167 157 154 155 126 145 141 138 132 140 136 143 150 152 154 141 165 214 228 215 222 216 206 207 205 198 189 174 104 65 352 336 275
125 63 17 147 144 186 334 360 154 230 134 159 162 158 150 135 137 140 139 134 138 139 150 170 176 186 197 225 246 257 268 274 270 260 251 247 248 249 244 243 258 322 326 292
343 172 173 143 206 245 72 103 113 110 117 122 139 135 138 135 137 143 142 146 150 153 156 170 194 196 239 263 276 262 269 305 302 263 250 245 245 249 259 263 262 255 262 318
320 153 99 74 326 63 113 112 114 109 111 116 128 141 148 144 146 144 146 149 158 171 189 214 227 235 231 290 307 314 306 319 348 317 260 255 248 244 249 254 266 273 276 273
206 67 143 48 269 133 97 134 133 129 134 137 129 135 145 148 153 155 154 161 169 182 213 245 253 238 235 228 190 67 12 356 355 6 356 321 295 272 261 262 265 264 259 284
3 168 137 208 21 263 223 192 175 160 153 152 156 148 156 162 152 155 156 170 186 195 236 252 254 233 218 202 194 62 19 34 33 31 28 20 0 320 303 290 260 255 263 257